Doha, Qatar

12:05 PM AST on August 26, 2016 (GMT +0300)
Doha International

Weather History for OTBD - March, 2014

Change the Weather History Date:

Wednesday, March 12, 2014

  Actual Average Record
Temperature  
Mean Temperature 86 °F -  
Max Temperature 98 °F 84 °F 100 °F (2003)
Min Temperature 73 °F 65 °F 55 °F (1998)
Cooling Degree Days 20    
Growing Degree Days 36 (Base 50)    
Moisture  
Dew Point 58 °F    
Average Humidity 46    
Maximum Humidity 73    
Minimum Humidity 8    
Precipitation  
Precipitation 0.00 in 0.02 in - ()
Sea Level Pressure  
Sea Level Pressure 29.80 in    
Wind  
Wind Speed 8 mph ()    
Max Wind Speed 18 mph    
Max Gust Speed 32 mph    
Visibility 3.1 miles    
Events      
Averages and records for this station are not official NWS values.
T = Trace of Precipitation, MM = Missing Value Source: Averaged Metar Reports

Daily Weather History Graph

Daily Weather History Graph

Search for Another Location

Airport or City:

Trip Planner

Search our weather history database for the weather conditions in past years. The results will help you decide how hot, cold, wet, or windy it might be!

Date:

Astronomy

Mar. 12, 2014 Rise Set
Actual Time 5:46 AM AST 5:41 PM AST
Civil Twilight 5:23 AM AST 6:03 PM AST
Nautical Twilight 4:56 AM AST 6:30 PM AST
Astronomical Twilight 4:30 AM AST 6:57 PM AST
Moon 2:08 PM AST (3/12) 2:43 AM AST (3/12)
Length of Visible Light 12h 40m
Length of Day
11h 54m
Waxing Gibbous, 83% of the Moon is Illuminated
Mar 12
Waxing Gibbous
Mar 16
Full
Mar 24
Last Quarter
Mar 30
New
Apr 7
First Quarter

Hourly Weather History & Observations

Time (AST) Temp. Heat Index Dew Point Humidity Pressure Visibility Wind Dir Wind Speed Gust Speed Precip Events Conditions
12:00 AM 74 °F - 65 °F 65% 29.86 in 7 mi ESE 5.8 mph - -   Scattered Clouds
12:00 AM 73.4 °F - 64.4 °F 73% 29.86 in - ESE 5.8 mph - N/A   Clear
1:00 AM 73.4 °F - 62.6 °F 69% 29.83 in - SSE 4.6 mph - N/A   Clear
2:00 AM 73.4 °F - 62.6 °F 69% 29.83 in - SSE 5.8 mph - N/A   Clear
3:00 AM 75.2 °F - 62.6 °F 65% 29.80 in - SSE 8.1 mph - N/A   Clear
4:00 AM 75.2 °F - 64.4 °F 69% 29.83 in - South 5.8 mph - N/A   Clear
5:00 AM 75.2 °F - 66.2 °F 73% 29.83 in - SSW 8.1 mph - N/A   Clear
6:00 AM 74 °F - 65 °F 66% 29.82 in 7 mi SSE 6.9 mph - -   Scattered Clouds
6:00 AM 73.4 °F - 64.4 °F 73% 29.80 in - SSE 6.9 mph - N/A   Clear
7:00 AM 75.2 °F - 60.8 °F 61% 29.80 in - SSE 6.9 mph - N/A   Clear
8:00 AM 80.6 °F 81.1 °F 59.0 °F 48% 29.83 in - SSE 11.5 mph - N/A   Clear
9:00 AM 82.4 °F 82.0 °F 57.2 °F 42% 29.86 in - South 10.4 mph - N/A   Clear
10:00 AM 89.6 °F - 48.2 °F 24% 29.83 in 5.0 mi SSW 13.8 mph - N/A   Unknown
11:00 AM 93.2 °F - 44.6 °F 19% 29.83 in 1.2 mi SSW 16.1 mph - N/A   Unknown
12:00 PM 96 °F - 41 °F 8% 29.80 in 1 mi South 17.3 mph - -   Widespread Dust
12:00 PM 96.8 °F - 41.0 °F 15% 29.77 in 0.9 mi South 17.3 mph 28.8 mph N/A   Unknown
1:00 PM 98.6 °F - 39.2 °F 13% 29.74 in 1.6 mi South 16.1 mph 32.2 mph N/A   Unknown
2:00 PM 95.0 °F - 51.8 °F 23% 29.74 in 1.9 mi SSE 18.4 mph - N/A   Unknown
3:00 PM 93.2 °F 91.3 °F 55.4 °F 28% 29.71 in 1.9 mi SSE 15.0 mph - N/A   Unknown
4:00 PM 91.4 °F 89.9 °F 57.2 °F 31% 29.74 in 2.5 mi SE 12.7 mph - N/A   Partly Cloudy
5:00 PM 87.8 °F 87.1 °F 59.0 °F 38% 29.74 in 3.1 mi SSE 9.2 mph - N/A   Partly Cloudy
6:00 PM 86 °F - 59 °F 30% 29.75 in 3 mi SSE 5.8 mph - -   Haze
6:00 PM 86.0 °F 85.4 °F 59.0 °F 40% 29.74 in 3.1 mi SSE 5.8 mph - N/A   Scattered Clouds
7:30 PM 86.0 °F 86.1 °F 60.8 °F 43% 29.77 in 5.0 mi SSE 6.9 mph - N/A   Unknown
8:00 PM 80.6 °F 82.3 °F 64.4 °F 58% 29.77 in 5.0 mi SE 11.5 mph - N/A   Unknown
9:00 PM 82.4 °F 83.9 °F 64.4 °F 54% 29.83 in 5.0 mi WNW 5.8 mph - N/A   Unknown
10:00 PM 84.2 °F 83.8 °F 59.0 °F 42% 29.83 in 0.7 mi NNW 15.0 mph - N/A   Unknown
11:00 PM 82.4 °F 82.0 °F 57.2 °F 42% 29.86 in 0.7 mi NW 18.4 mph - N/A   Unknown